"Time","Temp","Dewpoint","Humidity","Pressure","Direction","Speed","Gust","Precip","PrecipRate"
"00:04:56","65.9","60.7","83.4","30.30","108","0","0","0.00","0.00"
"00:09:58","65.7","60.1","82","30.30","108","0.1","3","0.00","0.00"
"00:14:56","65.7","60.1","82","30.30","108","0.3","2.3","0.00","0.00"
"00:19:56","65.6","60","82","30.30","108","0","0","0.00","0.00"
"00:24:59","65.4","59.8","82","30.30","108","0","0","0.00","0.00"
"00:29:58","65.3","59.8","82.5","30.30","108","0","1","0.00","0.00"
"00:34:58","65","60","83.7","30.30","108","0","1.2","0.00","0.00"
"00:39:58","64.9","60.3","85","30.30","108","0","0","0.00","0.00"
"00:44:58","64.7","60","84.7","30.30","108","0","0","0.00","0.00"
"00:49:58","64.4","59.5","84","30.29","108","0","0","0.00","0.00"
"00:54:56","64.1","59.4","84.5","30.29","108","0","0","0.00","0.00"
"00:59:56","63.7","59.3","85.4","30.30","108","0","0","0.00","0.00"
"01:04:58","63.5","59.2","86","30.30","108","0","0","0.00","0.00"
"01:09:59","63.1","59","86.3","30.30","108","0","0","0.00","0.00"
"01:14:56","62.8","59","87.2","30.30","108","0","0","0.00","0.00"
"01:19:57","62.5","58.7","87.1","30.29","108","0","0","0.00","0.00"
"01:24:56","62.3","58.7","88","30.29","108","0","0","0.00","0.00"
"01:29:59","61.9","58.5","88.6","30.29","108","0","0","0.00","0.00"
"01:34:57","61.6","58.6","89.9","30.29","108","0","0","0.00","0.00"
"01:39:59","61.4","58.4","90","30.29","108","0","0","0.00","0.00"
"01:44:59","61.2","58.3","90.3","30.29","108","0","0","0.00","0.00"
"01:49:58","61","58.4","91","30.29","108","0","0","0.00","0.00"
"01:54:56","60.7","58.3","91.5","30.29","108","0","0","0.00","0.00"
"01:59:59","60.6","58.3","92","30.29","108","0","0","0.00","0.00"
"02:04:57","60.5","58.3","92.6","30.29","108","0","1.2","0.00","0.00"
"02:09:56","60.4","58.2","92.5","30.29","108","0","0","0.00","0.00"
"02:14:57","60.2","57.9","92","30.29","108","0","0","0.00","0.00"
"02:19:56","60","57.9","92.6","30.29","108","0","0","0.00","0.00"
"02:24:59","59.8","57.8","93","30.29","108","0","0","0.00","0.00"
"02:29:58","59.6","57.6","93","30.29","108","0","0","0.00","0.00"
"02:34:57","59.6","57.8","93.7","30.28","108","0","1","0.00","0.00"
"02:39:56","59.7","58.1","94.4","30.28","108","0","1","0.00","0.00"
"02:44:59","59.8","58.4","95","30.28","108","0","1.2","0.00","0.00"
"02:49:59","59.9","58.5","95","30.28","108","0","0","0.00","0.00"
"02:54:59","59.9","58.5","95","30.28","108","0","1","0.00","0.00"
"02:59:58","60.1","58.7","95","30.28","108","0.1","1.2","0.00","0.00"
"03:04:57","60.2","58.8","95","30.28","108","0","0","0.00","0.00"
"03:09:59","60.3","58.9","95","30.28","108","0","0","0.00","0.00"
"03:14:58","60.4","59","95","30.28","108","0.1","1.2","0.00","0.00"
"03:19:56","60.5","59.1","95","30.28","108","0","1","0.00","0.00"
"03:24:59","60.6","59.2","95","30.28","108","0","1.2","0.00","0.00"
"03:29:59","60.7","59.3","95","30.28","108","0","0","0.00","0.00"
"03:34:56","60.7","59.3","95","30.28","108","0","0","0.00","0.00"
"03:39:57","60.7","59.3","95","30.28","108","0","0","0.00","0.00"
"03:44:59","60.7","59.3","95","30.28","108","0","0","0.00","0.00"
"03:49:57","60.8","59.4","95","30.28","108","0","0","0.00","0.00"
"03:54:59","60.8","59.4","95","30.28","108","0","0","0.00","0.00"
"03:59:56","60.8","59.4","95","30.28","108","0","0","0.00","0.00"
"04:04:57","60.8","59.4","95","30.27","108","0","0","0.00","0.00"
"04:09:56","60.8","59.4","95","30.27","108","0","0","0.00","0.00"
"04:14:58","60.9","59.5","95","30.27","108","0","0","0.00","0.00"
"04:19:59","60.9","59.6","95.2","30.27","108","0","0","0.00","0.00"
"04:24:56","61","59.7","95.3","30.27","108","0","0","0.00","0.00"
"04:29:59","61.1","60","96","30.27","108","0","0","0.00","0.00"
"04:34:57","61.2","60.1","96","30.27","108","0","0","0.00","0.00"
"04:39:58","61.3","60.2","96","30.27","108","0","0","0.00","0.00"
"04:44:59","61.4","60","95.1","30.27","108","0","0","0.00","0.00"
"04:49:57","61.4","60.1","95.6","30.27","108","0","0","0.00","0.00"
"04:54:57","61.5","60.1","95","30.27","107","0","0","0.00","0.00"
"04:59:59","61.5","60.1","95","30.27","108","0","0","0.00","0.00"
"05:04:56","61.6","60.2","95","30.27","20","0.9","3.5","0.00","0.00"
"05:09:59","61.6","60.2","95","30.27","20","0.1","1.2","0.00","0.00"
"05:14:59","61.7","60.3","95","30.27","20","0.1","1.2","0.00","0.00"
"05:19:56","61.7","60.3","95","30.27","20","0","0","0.00","0.00"
"05:24:58","61.7","60.3","95","30.27","20","0","0","0.00","0.00"
"05:29:58","61.7","60.3","95","30.27","20","0.2","1.2","0.00","0.00"
"05:34:59","61.8","60.4","95","30.27","20","0.2","2.3","0.00","0.00"
"05:39:56","61.8","60.4","95","30.27","20","0.2","1.2","0.00","0.00"
"05:44:57","61.9","60.5","95","30.28","20","0.1","1.2","0.00","0.00"
"05:49:58","61.9","60.5","95","30.28","21","0","1","0.00","0.00"
"05:54:58","61.9","60.5","95","30.28","20","0","1.2","0.00","0.00"
"05:59:56","61.9","60.5","95","30.28","20","0.2","1.2","0.00","0.00"
"06:04:57","61.9","60.5","95","30.27","20","0","1","0.00","0.00"
"06:09:57","61.9","60.5","95","30.27","20","0.1","1.2","0.00","0.00"
"06:14:58","62","60.6","95","30.28","20","0.3","1.2","0.00","0.00"
"06:19:56","62","60.6","95","30.28","20","0","1.2","0.00","0.00"
"06:24:56","62","60.6","95","30.28","20","0","1","0.00","0.00"
"06:29:58","62","60.6","95","30.28","20","0","1.2","0.00","0.00"
"06:34:58","62","60.6","95","30.27","20","0.1","1.2","0.00","0.00"
"06:39:57","62","60.6","95","30.27","20","0","1","0.00","0.00"
"06:44:59","62.1","60.7","95","30.28","20","0","0","0.00","0.00"
"06:49:55","62.2","60.8","95","30.28","20","0","0","0.00","0.00"
"06:54:58","62.3","60.8","95","30.28","20","0","0","0.00","0.00"
"06:59:56","62.4","60.9","95","30.28","20","0","0","0.00","0.00"
"07:04:57","62.5","61","95","30.28","20","0","0","0.00","0.00"
"07:09:59","62.5","60.9","94.6","30.28","20","0","0","0.00","0.00"
"07:14:57","62.6","61","94.8","30.29","20","0","0","0.00","0.00"
"07:19:58","62.7","60.9","94","30.29","20","0","0","0.00","0.00"
"07:24:57","62.8","61","94","30.29","20","0","0","0.00","0.00"
"07:29:56","62.9","61.1","94","30.29","20","0","0","0.00","0.00"
"07:34:57","62.9","61.1","94","30.29","20","0","0","0.00","0.00"
"07:39:58","63.1","61.3","94","30.29","20","0","0","0.00","0.00"
"07:44:56","63.1","61.3","94","30.30","20","0","0","0.00","0.00"
"07:49:58","63.2","61.4","94","30.30","20","0","0","0.00","0.00"
"07:54:58","63.3","61.5","94","30.30","20","0","0","0.00","0.00"
"07:59:57","63.4","61.6","94","30.30","20","0","0","0.00","0.00"
"08:04:58","63.5","61.7","94","30.30","20","0","0","0.00","0.00"
"08:09:56","63.7","61.9","93.9","30.30","20","0","0","0.00","0.00"
"08:14:58","63.8","61.8","93.2","30.30","20","0","0","0.00","0.00"
"08:19:58","63.9","62.1","94","30.29","20","0","0","0.00","0.00"
"08:24:56","64.2","62.4","94","30.29","20","0","0","0.00","0.00"
"08:29:56","64.5","62.6","93.7","30.29","20","0","0","0.00","0.00"
"08:34:57","64.8","62.7","93.1","30.29","20","0","0","0.00","0.00"
"08:39:57","65.1","62.9","92.5","30.29","20","0","0","0.00","0.00"
"08:44:59","65.3","62.9","92","30.29","20","0","0","0.00","0.00"
"08:49:59","65.5","63","91.7","30.29","53","0","0","0.00","0.00"
"08:54:56","65.8","63.1","91","30.29","53","0","0","0.00","0.00"
"08:59:56","66.1","63.4","91","30.29","16","0","1","0.00","0.00"
"09:04:56","66.3","63.3","90","30.29","13","0","1.2","0.00","0.00"
"09:09:59","66.4","63.4","90","30.29","69","0","0","0.00","0.00"
"09:14:59","66.5","63.5","90","30.29","67","0","0","0.00","0.00"
"09:19:57","66.7","63.7","90","30.29","65","0","0","0.00","0.00"
"09:24:57","67","64.1","90.3","30.29","65","0","0","0.00","0.00"
"09:29:57","67.4","64.3","89.8","30.29","65","0","0","0.00","0.00"
"09:34:59","67.7","64.5","89.3","30.29","55","0","0","0.00","0.00"
"09:39:59","67.9","64.2","88","30.29","68","0","0","0.00","0.00"
"09:44:56","68.1","64.6","88.8","30.29","68","0","0","0.00","0.00"
"09:49:57","68.4","64.9","88.6","30.29","58","0","0","0.00","0.00"
"09:54:56","68.8","65.2","88.4","30.29","111","0","1.2","0.00","0.00"
"09:59:59","69.1","65.2","87.5","30.29","59","0","1.2","0.00","0.00"
"10:04:59","69.2","65.5","87.8","30.29","360","0","0","0.00","0.00"
"10:09:57","69.4","65.3","86.8","30.29","44","0","0","0.00","0.00"
"10:14:58","69.4","65.4","86.9","30.29","44","0","0","0.00","0.00"
"10:19:57","69.5","65.7","87.6","30.29","49","0","0","0.00","0.00"
"10:24:57","69.6","65.9","87.9","30.29","49","0","0","0.00","0.00"
"10:29:57","69.8","66","87.6","30.29","49","0","0","0.00","0.00"
"10:34:58","70","66","87.1","30.29","238","0","0","0.00","0.00"
"10:39:57","70.2","66","86.7","30.29","236","0","0","0.00","0.00"
"10:44:58","70.4","66.2","86.5","30.29","236","0","0","0.00","0.00"
"10:49:59","70.7","66.2","85.9","30.28","236","0","0","0.00","0.00"
"10:54:57","70.9","66.6","86.5","30.28","232","0","0","0.00","0.00"
"10:59:58","71.1","66.9","86.5","30.28","232","0","0","0.00","0.00"
"11:04:58","71.4","66.8","85.4","30.28","232","0","0","0.00","0.00"
"11:09:56","71.7","67.3","86","30.28","224","0","0","0.00","0.00"
"11:14:58","72.2","67.8","86.1","30.28","167","0","0","0.00","0.00"
"11:19:58","72.7","67.7","84.5","30.28","120","0","1.2","0.00","0.00"
"11:24:59","72.9","67.8","83.9","30.28","135","0","1.2","0.00","0.00"
"11:29:56","73","67.8","83.7","30.28","134","0","1.2","0.00","0.00"
"11:34:58","73.4","68.4","84.4","30.28","130","0","1.2","0.00","0.00"
"11:39:56","74","68.7","83.8","30.28","123","0.4","4","0.00","0.00"
"11:44:56","74.6","69.4","83.8","30.28","121","0.5","3.5","0.00","0.00"
"11:49:59","75.4","69.8","82.7","30.27","135","0.2","2.3","0.00","0.00"
"11:54:58","76.1","69.9","81","30.27","181","0.5","4","0.00","0.00"
"11:59:58","76.6","70.1","80.3","30.27","130","0.1","2","0.00","0.00"
"12:04:59","77.1","69.8","78.5","30.26","144","0.5","4","0.00","0.00"
"12:09:56","77.3","70.3","79","30.26","155","0.5","6","0.00","0.00"
"12:14:57","77.5","70.1","78.1","30.26","129","0.2","2.3","0.00","0.00"
"12:19:57","77.9","70.1","77","30.26","123","0.2","5","0.00","0.00"
"12:24:56","78.1","70","76.2","30.26","117","0.6","6","0.00","0.00"
"12:29:56","78","69.2","74.5","30.26","128","2.8","7","0.00","0.00"
"12:34:59","78","69.4","75","30.26","122","1.4","7","0.00","0.00"
"12:39:57","78.1","69.2","74.4","30.26","158","2.9","6","0.00","0.00"
"12:44:56","78.1","69.1","74","30.26","131","2.7","11.5","0.00","0.00"
"12:49:59","78","69.2","74.4","30.25","137","2.5","6","0.00","0.00"
"12:54:56","77.9","68.9","73.9","30.25","126","2.4","6","0.00","0.00"
"12:59:59","77.9","68.7","73.7","30.25","156","2.2","5.8","0.00","0.00"
"13:04:59","78","69.6","75.6","30.25","181","2.8","5","0.00","0.00"
"13:09:56","78.2","69.6","75","30.25","151","2.1","4.6","0.00","0.00"
"13:14:56","78.2","69.4","74.6","30.25","164","2.2","7","0.00","0.00"
"13:19:57","78","69.1","74.3","30.25","131","2.9","8.1","0.00","0.00"
"13:24:58","77.9","69.4","75.3","30.25","125","2.5","6","0.00","0.00"
"13:29:59","78.1","69.9","75.8","30.25","122","1.8","5","0.00","0.00"
"13:34:57","78.4","69.8","75.1","30.25","128","2","5","0.00","0.00"
"13:39:58","78.4","69.6","74.6","30.25","144","1.6","5","0.00","0.00"
"13:44:59","78.3","69.4","74.2","30.25","121","2.7","5","0.00","0.00"
"13:49:57","78","69.4","75","30.24","131","3.1","7","0.00","0.00"
"13:54:58","77.8","69.2","75.1","30.24","150","2.7","7","0.00","0.00"
"13:59:59","77.6","69.5","76.2","30.24","140","2.8","7","0.00","0.00"
"14:04:54","77.2","69.2","76.5","30.24","141","2.2","5.8","0.00","0.00"
"14:09:56","76.9","69.1","77.2","30.24","139","1.6","5","0.00","0.00"
"14:14:57","76.6","69.2","77.9","30.24","113","0.9","4","0.00","0.00"
"14:19:56","76.5","69.2","78.2","30.23","114","1.3","3.5","0.00","0.00"
"14:24:56","76.6","69.2","78.1","30.23","114","0.9","2.3","0.00","0.00"
"14:29:57","76.7","69.8","79.3","30.23","115","0.5","2.3","0.00","0.00"
"14:34:57","76.8","69.7","78.6","30.23","168","0.1","4","0.00","0.00"
"14:39:57","76.9","69.8","78.6","30.23","183","1.5","4","0.00","0.00"
"14:44:57","77.1","70.1","79.2","30.23","184","0.5","2.3","0.00","0.00"
"14:49:57","77.2","70.2","78.9","30.22","184","1.2","3.5","0.00","0.00"
"14:54:58","77.4","70","78.1","30.22","157","1.2","4","0.00","0.00"
"14:59:59","77.4","69.7","77.1","30.22","125","0.6","3.5","0.00","0.00"
"15:04:58","77.5","69.7","77","30.22","123","1.6","4","0.00","0.00"
"15:09:56","77.5","69.9","77.5","30.22","141","1.5","3.5","0.00","0.00"
"15:14:58","77.4","69.6","77","30.22","138","1.8","5","0.00","0.00"
"15:19:58","77.3","69.2","76.2","30.21","175","3.4","6","0.00","0.00"
"15:24:57","77.1","68.9","76","30.21","186","2.3","5","0.00","0.00"
"15:29:56","76.9","69.2","77.3","30.21","192","1.2","3.5","0.00","0.00"
"15:34:56","76.8","69.7","78.7","30.21","192","1.3","3","0.00","0.00"
"15:39:59","76.8","70.1","79.8","30.21","191","1.5","3.5","0.00","0.00"
"15:44:59","76.8","70.3","80.3","30.21","191","1.2","3.5","0.00","0.00"
"15:49:59","77","70.1","79.2","30.20","180","1.2","3.5","0.00","0.00"
"15:54:58","77.3","70.3","79.2","30.20","163","1.7","4","0.00","0.00"
"15:59:57","77.5","70.2","78.3","30.20","172","1.5","4","0.00","0.00"
"16:04:57","77.7","70.3","78.1","30.20","155","1.3","3.5","0.00","0.00"
"16:09:59","77.7","69.9","77","30.20","156","1.4","5","0.00","0.00"
"16:14:56","77.7","69.4","75.8","30.20","164","2.1","4","0.00","0.00"
"16:19:56","77.6","69.2","75.5","30.20","162","1.8","6","0.00","0.00"
"16:24:57","77.5","68.9","74.9","30.20","118","1.8","6","0.00","0.00"
"16:29:58","77.4","68.8","74.8","30.20","117","1.5","4","0.00","0.00"
"16:34:59","77.3","68.9","75.2","30.20","118","1.7","4","0.00","0.00"
"16:39:56","77.3","68.9","75.6","30.20","137","1.4","5","0.00","0.00"
"16:44:57","77.2","69","76","30.20","123","0.4","3.5","0.00","0.00"
"16:49:58","77.1","69","76.1","30.20","123","0.5","5","0.00","0.00"
"16:54:56","77.1","68.7","75.5","30.20","123","2.3","5","0.00","0.00"
"16:59:59","77","68.8","75.8","30.20","104","1.2","3.5","0.00","0.00"
"17:04:59","76.9","68.9","76.2","30.20","105","0.1","2.3","0.00","0.00"
"17:09:58","76.9","68.8","76","30.20","120","1.3","3.5","0.00","0.00"
"17:14:59","76.8","68.3","75.1","30.20","141","0.8","4","0.00","0.00"
"17:19:58","76.8","68.1","74.6","30.19","121","0.7","3","0.00","0.00"
"17:24:59","76.9","68.1","74.4","30.19","119","0.9","3.5","0.00","0.00"
"17:29:59","76.9","68","74.1","30.19","133","1.3","5","0.00","0.00"
"17:34:58","76.9","67.4","72.5","30.19","136","1.8","4.6","0.00","0.00"
"17:39:59","76.8","67.2","72.1","30.19","124","1.4","4","0.00","0.00"
"17:44:59","76.8","67.5","73","30.19","122","1.5","5","0.00","0.00"
"17:49:59","76.8","67.5","73","30.19","118","1.4","3.5","0.00","0.00"
"17:54:56","76.7","67.8","74","30.19","112","1.4","6","0.00","0.00"
"17:59:56","76.7","68.2","75","30.19","116","1.8","6","0.00","0.00"
"18:04:56","76.6","68.1","75","30.19","122","2.1","5","0.00","0.00"
"18:09:57","76.5","68","75","30.19","126","2.6","6","0.00","0.00"
"18:14:59","76.5","67.9","74.8","30.19","118","2.7","6","0.00","0.00"
"18:19:58","76.4","67.9","75","30.19","115","2","5","0.00","0.00"
"18:24:58","76.4","67.8","74.7","30.19","113","1.9","4","0.00","0.00"
"18:29:57","76.3","67.4","74","30.19","146","1.6","4","0.00","0.00"
"18:34:57","76.3","67.4","74","30.19","102","1.3","6","0.00","0.00"
"18:39:58","76.2","67.3","73.9","30.19","123","2.4","5","0.00","0.00"
"18:44:59","76.2","67.1","73.6","30.19","116","2.4","6","0.00","0.00"
"18:49:58","76.1","66.8","73.2","30.19","114","2.6","5","0.00","0.00"
"18:54:59","76","66.7","73","30.19","137","2","5","0.00","0.00"
"18:59:58","75.9","66.6","73","30.19","114","2.5","7","0.00","0.00"
"19:04:58","75.8","66.5","73","30.18","108","2.1","6","0.00","0.00"
"19:09:56","75.8","66.6","73.2","30.18","116","2.2","6","0.00","0.00"
"19:14:57","75.7","66.6","73.5","30.18","122","2.1","6","0.00","0.00"
"19:19:57","75.7","66.6","73.5","30.18","97","1.5","5.8","0.00","0.00"
"19:24:59","75.6","66.5","73.4","30.18","116","2.5","5","0.00","0.00"
"19:29:56","75.6","66.6","73.7","30.18","132","1.9","6","0.00","0.00"
"19:34:57","75.5","66.6","73.9","30.18","120","2.5","5","0.00","0.00"
"19:39:57","75.4","66.5","73.9","30.18","123","2.1","5","0.00","0.00"
"19:44:59","75.4","66.4","73.8","30.18","117","2","7","0.00","0.00"
"19:49:59","75.3","66.3","73.8","30.18","118","2.1","6.9","0.00","0.00"
"19:54:59","75.2","66.3","74","30.18","115","1","3.5","0.00","0.00"
"19:59:56","75.1","66.2","74","30.18","122","1","4","0.00","0.00"
"20:04:56","75","66.1","74","30.18","119","1.6","4","0.00","0.00"
"20:09:59","74.9","66.2","74.3","30.18","130","1.8","6","0.00","0.00"
"20:14:56","74.8","66.2","74.6","30.18","113","1.4","4.6","0.00","0.00"
"20:19:57","74.8","66.3","75","30.18","117","1.9","5","0.00","0.00"
"20:24:57","74.7","66.2","75","30.18","126","1.7","4.6","0.00","0.00"
"20:29:59","74.7","66.2","75","30.18","122","0.8","3.5","0.00","0.00"
"20:34:59","74.6","66.3","75.3","30.18","115","1.8","5","0.00","0.00"
"20:39:56","74.6","66.4","75.8","30.18","115","0.8","3","0.00","0.00"
"20:44:57","74.4","66.3","76","30.18","115","0.4","2.3","0.00","0.00"
"20:49:57","74.4","66.3","76","30.18","115","1.1","3.5","0.00","0.00"
"20:54:58","74.3","66.2","76","30.18","126","1.6","3.5","0.00","0.00"
"20:59:59","74.2","66.2","76.3","30.18","120","1.1","6","0.00","0.00"
"21:04:56","74.2","66.1","76","30.18","112","1.2","4","0.00","0.00"
"21:09:58","74.1","66.3","76.6","30.18","108","1.6","5","0.00","0.00"
"21:14:59","74.1","66.4","77","30.18","109","0.7","4","0.00","0.00"
"21:19:56","74","66.3","77","30.18","125","1.5","3.5","0.00","0.00"
"21:24:58","74","66.4","77.4","30.18","125","0.8","3.5","0.00","0.00"
"21:29:59","73.9","66.6","78","30.18","130","1","4","0.00","0.00"
"21:34:56","73.8","66.5","78","30.18","136","0.7","2.3","0.00","0.00"
"21:39:57","73.7","66.5","78.3","30.18","131","1.9","4","0.00","0.00"
"21:44:59","73.6","66.7","79","30.18","148","1.3","3.5","0.00","0.00"
"21:49:58","73.6","66.7","79","30.18","147","0.9","5","0.00","0.00"
"21:54:59","73.5","66.7","79.4","30.18","145","1.3","5","0.00","0.00"
"21:59:56","73.4","66.9","80","30.18","137","0.7","3.5","0.00","0.00"
"22:04:56","73.3","66.8","80","30.18","127","1","4","0.00","0.00"
"22:09:59","73.3","66.8","80","30.18","121","1.1","4","0.00","0.00"
"22:14:56","73.1","66.8","80.6","30.18","121","0.3","2.3","0.00","0.00"
"22:19:56","73","66.8","81","30.18","123","1","4","0.00","0.00"
"22:24:57","73","66.8","81","30.18","128","1","3.5","0.00","0.00"
"22:29:58","72.9","66.7","81","30.18","130","1","3.5","0.00","0.00"
"22:34:58","72.8","66.8","81.4","30.18","130","0.5","3.5","0.00","0.00"
"22:39:59","72.8","67","82","30.18","130","0.1","1.2","0.00","0.00"
"22:44:56","72.7","66.9","82","30.18","130","0","1.2","0.00","0.00"
"22:49:57","72.6","66.9","82.3","30.18","130","0.4","2.3","0.00","0.00"
"22:54:59","72.5","67","83","30.18","130","0.6","3","0.00","0.00"
"22:59:57","72.5","67","83","30.18","130","0.2","1.2","0.00","0.00"
"23:04:58","72.4","66.9","83","30.17","132","0.4","3","0.00","0.00"
"23:09:57","72.4","66.9","83","30.17","136","0.6","3.5","0.00","0.00"
"23:14:56","72.4","67.2","83.9","30.18","135","0.3","3.5","0.00","0.00"
"23:19:57","72.3","67.2","84","30.18","133","1","3.5","0.00","0.00"
"23:24:57","72.3","67.2","84","30.18","134","0.4","2.3","0.00","0.00"
"23:29:57","72.2","67.1","84","30.18","134","0.7","3","0.00","0.00"
"23:34:58","72.2","67.1","84","30.17","134","0.1","1.2","0.00","0.00"
"23:39:56","72.1","67","84","30.17","134","0","1.2","0.00","0.00"
"23:44:59","72","67","84.4","30.17","134","0","1","0.00","0.00"
"23:49:58","71.9","67.1","85","30.17","134","0.1","1.2","0.00","0.00"
"23:54:59","71.9","67.3","85.7","30.17","133","0.3","2","0.00","0.00"
"23:59:59","71.7","67.3","86","30.17","133","0.6","2.3","0.00","0.00"
